| time (UTC) | temp C | wind direction | speed KPH | gust KPH | rain 1hr cm | rain 24hr cm | rain mn cm | humidity % | barometer mb |
| 20260505041030 | 9 | 63 | 6.4 | 17.7 | 0.00 | 0.00 | 0.00 | 87 | 1012.3 |
| 20260505040030 | 9 | 59 | 8.0 | 16.1 | 0.00 | 0.00 | 0.00 | 87 | 1012.3 |
| 20260505035030 | 9 | 63 | 9.7 | 19.3 | 0.00 | 0.00 | 0.00 | 87 | 1012.2 |
| 20260505034030 | 9 | 64 | 9.7 | 22.5 | 0.00 | 0.00 | 0.00 | 87 | 1012.2 |
| 20260505033030 | 9 | 62 | 6.4 | 16.1 | 0.00 | 0.00 | 0.00 | 87 | 1012.1 |
| 20260505032030 | 9 | 62 | 11.3 | 20.9 | 0.00 | 0.00 | 0.00 | 87 | 1012.2 |
| 20260505031029 | 9 | 55 | 9.7 | 17.7 | 0.00 | 0.00 | 0.00 | 87 | 1012.1 |
| 20260505030029 | 9 | 59 | 11.3 | 17.7 | 0.00 | 0.00 | 0.00 | 87 | 1012.1 |
| 20260505025029 | 9 | 64 | 11.3 | 22.5 | 0.00 | 0.00 | 0.00 | 87 | 1012.2 |
| 20260505024029 | 9 | 71 | 9.7 | 16.1 | 0.00 | 0.00 | 0.00 | 87 | 1012.3 |
| 20260505023029 | 9 | 61 | 11.3 | 20.9 | 0.00 | 0.00 | 0.00 | 87 | 1012.4 |
| 20260505022029 | 9 | 69 | 11.3 | 20.9 | 0.00 | 0.00 | 0.00 | 87 | 1012.4 |
| 20260505021029 | 10 | 52 | 9.7 | 17.7 | 0.00 | 0.00 | 0.00 | 87 | 1012.4 |
| 20260505020029 | 10 | 47 | 12.9 | 25.7 | 0.00 | 0.00 | 0.00 | 87 | 1012.5 |
| 20260505015029 | 10 | 55 | 14.5 | 22.5 | 0.00 | 0.00 | 0.00 | 87 | 1012.6 |
| 20260505014029 | 10 | 47 | 12.9 | 19.3 | 0.00 | 0.00 | 0.00 | 87 | 1012.6 |
| 20260505013029 | 10 | 43 | 11.3 | 20.9 | 0.00 | 0.00 | 0.00 | 87 | 1012.6 |
| 20260505012030 | 10 | 46 | 11.3 | 22.5 | 0.00 | 0.00 | 0.00 | 87 | 1012.7 |
| 20260505011030 | 10 | 40 | 11.3 | 20.9 | 0.00 | 0.00 | 0.00 | 87 | 1012.9 |
| 20260505010030 | 10 | 38 | 9.7 | 19.3 | 0.00 | 0.00 | 0.00 | 87 | 1013.0 |
| 20260505005030 | 10 | 40 | 11.3 | 20.9 | 0.00 | 0.00 | 0.00 | 87 | 1013.0 |
| 20260505004030 | 10 | 44 | 9.7 | 20.9 | 0.00 | 0.00 | 0.00 | 87 | 1013.1 |
| 20260505003029 | 10 | 30 | 12.9 | 22.5 | 0.00 | 0.00 | 0.00 | 87 | 1012.9 |
| 20260505002029 | 10 | 38 | 11.3 | 22.5 | 0.00 | 0.00 | 0.00 | 87 | 1013.0 |
| 20260505001029 | 10 | 26 | 11.3 | 22.5 | 0.00 | 0.00 | 0.00 | 87 | 1013.1 |
| 20260505000030 | 10 | 32 | 12.9 | 22.5 | 0.00 | 0.00 | 0.00 | 87 | 1013.1 |
| 20260504235030 | 10 | 25 | 11.3 | 20.9 | 0.00 | 0.00 | 0.00 | 87 | 1013.1 |
| 20260504234030 | 10 | 30 | 11.3 | 22.5 | 0.00 | 0.00 | 0.00 | 87 | 1013.3 |
| 20260504233030 | 10 | 43 | 11.3 | 19.3 | 0.00 | 0.00 | 0.00 | 87 | 1013.2 |
| 20260504232029 | 10 | 32 | 12.9 | 22.5 | 0.00 | 0.00 | 0.00 | 87 | 1013.3 |
| 20260504231029 | 10 | 34 | 12.9 | 20.9 | 0.00 | 0.00 | 0.00 | 86 | 1013.5 |
| 20260504230029 | 11 | 47 | 11.3 | 20.9 | 0.00 | 0.00 | 0.00 | 86 | 1013.5 |
| 20260504225029 | 11 | 34 | 14.5 | 22.5 | 0.00 | 0.00 | 0.00 | 86 | 1013.5 |
| 20260504224030 | 11 | 37 | 14.5 | 22.5 | 0.00 | 0.00 | 0.00 | 86 | 1013.5 |
| 20260504223030 | 11 | 37 | 14.5 | 22.5 | 0.00 | 0.00 | 0.00 | 86 | 1013.5 |
| 20260504222030 | 11 | 24 | 11.3 | 20.9 | 0.00 | 0.00 | 0.00 | 86 | 1013.7 |
| 20260504221030 | 11 | 15 | 12.9 | 20.9 | 0.00 | 0.00 | 0.00 | 86 | 1013.8 |
| 20260504220030 | 11 | 23 | 9.7 | 17.7 | 0.00 | 0.00 | 0.05 | 86 | 1013.8 |
| 20260504215030 | 11 | 40 | 11.3 | 17.7 | 0.00 | 0.00 | 0.05 | 86 | 1013.9 |
| 20260504214030 | 11 | 46 | 12.9 | 20.9 | 0.00 | 0.00 | 0.05 | 86 | 1013.9 |
| 20260504213030 | 11 | 42 | 12.9 | 19.3 | 0.00 | 0.00 | 0.05 | 86 | 1014.0 |
| 20260504212030 | 12 | 40 | 9.7 | 17.7 | 0.00 | 0.00 | 0.05 | 86 | 1014.0 |
| 20260504211030 | 12 | 32 | 14.5 | 24.1 | 0.00 | 0.00 | 0.05 | 86 | 1013.9 |
| 20260504210030 | 12 | 40 | 14.5 | 24.1 | 0.00 | 0.00 | 0.05 | 86 | 1014.1 |
| 20260504205030 | 12 | 47 | 11.3 | 19.3 | 0.00 | 0.00 | 0.05 | 86 | 1014.0 |
| 20260504204030 | 12 | 42 | 12.9 | 19.3 | 0.00 | 0.00 | 0.05 | 86 | 1013.9 |
| 20260504203030 | 12 | 30 | 11.3 | 20.9 | 0.00 | 0.00 | 0.05 | 86 | 1013.8 |
| 20260504202030 | 12 | 32 | 14.5 | 22.5 | 0.00 | 0.00 | 0.05 | 86 | 1013.8 |
| 20260504201030 | 12 | 39 | 14.5 | 22.5 | 0.00 | 0.00 | 0.05 | 86 | 1013.8 |
| 20260504200030 | 12 | 34 | 9.7 | 16.1 | 0.00 | 0.00 | 0.05 | 86 | 1013.7 |
| 20260504195030 | 12 | 43 | 14.5 | 24.1 | 0.00 | 0.00 | 0.05 | 86 | 1013.6 |
| 20260504194030 | 13 | 31 | 14.5 | 24.1 | 0.00 | 0.00 | 0.05 | 86 | 1013.5 |
| 20260504193030 | 13 | 14 | 11.3 | 20.9 | 0.00 | 0.00 | 0.05 | 86 | 1013.4 |
| 20260504192030 | 13 | 25 | 14.5 | 29.0 | 0.00 | 0.00 | 0.05 | 86 | 1013.4 |
| 20260504191030 | 13 | 18 | 14.5 | 29.0 | 0.00 | 0.00 | 0.05 | 85 | 1013.3 |
| 20260504190030 | 13 | 12 | 14.5 | 22.5 | 0.00 | 0.00 | 0.05 | 85 | 1013.3 |
| 20260504185029 | 13 | 12 | 16.1 | 27.4 | 0.00 | 0.00 | 0.05 | 85 | 1013.2 |
| 20260504184029 | 13 | 15 | 14.5 | 24.1 | 0.00 | 0.00 | 0.05 | 85 | 1013.4 |
| 20260504183030 | 14 | 3 | 17.7 | 27.4 | 0.00 | 0.00 | 0.05 | 85 | 1013.2 |
| 20260504182030 | 14 | 1 | 17.7 | 27.4 | 0.00 | 0.00 | 0.05 | 84 | 1013.1 |
| 20260504181030 | 14 | 7 | 17.7 | 25.7 | 0.00 | 0.00 | 0.05 | 83 | 1013.1 |
| 20260504180030 | 15 | 3 | 17.7 | 27.4 | 0.00 | 0.00 | 0.05 | 83 | 1013.1 |
| 20260504175030 | 15 | 359 | 16.1 | 27.4 | 0.00 | 0.00 | 0.05 | 83 | 1013.1 |
| 20260504174030 | 15 | 349 | 16.1 | 24.1 | 0.00 | 0.00 | 0.05 | 83 | 1013.1 |
| 20260504173030 | 15 | 5 | 14.5 | 22.5 | 0.00 | 0.00 | 0.05 | 83 | 1013.2 |
| 20260504172030 | 15 | 339 | 16.1 | 24.1 | 0.00 | 0.00 | 0.05 | 83 | 1013.0 |
| 20260504171029 | 15 | 4 | 14.5 | 25.7 | 0.00 | 0.00 | 0.05 | 83 | 1013.1 |
| 20260504151030 | 16 | 347 | 16.1 | 20.9 | 0.00 | 0.00 | 0.05 | 83 | 1013.0 |
| 20260504141030 | 16 | 355 | 12.9 | 20.9 | 0.00 | 0.00 | 0.05 | 83 | 1013.3 |
| 20260504081030 | 14 | 179 | 1.6 | 4.8 | 0.00 | 0.00 | 0.05 | 95 | 1013.0 |
| 20260504045030 | 12 | 262 | 0.0 | 1.6 | 0.00 | 0.00 | 0.05 | 94 | 1011.8 |
| 20260504044030 | 12 | 262 | 3.2 | 6.4 | 0.00 | 0.00 | 0.05 | 94 | 1011.8 |